Location: Waco, TX
(31.5480°N, 97.1670°W)
Time: 03:00:09
(UTC-05:00)

ISS - Pass Details

Date: 13 September 2017
Orbit: 401 x 407 km, 51.6° (Epoch: 22 September)

Event Time Altitude Azimuth Distance (km) Brightness Sun altitude
Rises 07:47:50 0° 333° (NNW) 2,331 -0.2 6.8°
Reaches altitude 10° 07:50:46 10° 2° (N) 1,467 -0.9 7.5°
Maximum altitude 07:52:28 13° 33° (NNE) 1,281 -0.8 7.8°
Drops below altitude 10° 07:54:09 10° 64° (ENE) 1,463 0.4 8.2°
Sets 07:57:05 0° 93° (E) 2,319 2.5 8.8°
